Wind_Speed
12 13 12 11 11 12 13 13 12 12 12 12 12 11 11 11 11 12 12 11 12 11 9 7 7 7 6 6 6 4 3 2 1 1 2 3 3 4 4 4 4 3 4 5 5 5 5 5 5 6 5 5 7 8 8 8 8 8 8 9 10 10 10 11 12 13 13 13 13 12 12 12 12 13 13 13 12 12 12 12 10 9 9 9 10
12 11 11 11 10 12 13 12 11 11 10 11 11 10 10 10 10 9 9 9 10 9 8 7 6 6 5 6 5 4 3 3 3 3 3 3 4 4 4 4 4 4 4 5 5 5 5 5 5 5 5 5 7 8 8 8 8 8 8 9 9 10 11 12 12 13 13 13 13 13 12 12 12 12 13 12 11 10 11 11 9 9 9 10 10
11 11 11 11 10 11 11 11 10 10 10 9 9 9 9 9 8 8 7 7 7 7 6 6 6 5 5 5 5 4 4 4 4 4 5 5 4 4 4 4 4 4 5 5 5 5 5 5 5 5 5 6 7 8 8 8 8 8 8 8 9 9 11 12 13 13 12 12 13 13 12 11 11 12 12 11 10 10 9 9 9 9 10 10 10
10 9 10 10 9 9 10 10 10 9 9 9 9 9 9 8 8 8 7 6 6 6 6 6 6 5 5 5 5 5 6 5 5 5 5 5 5 5 4 4 4 5 5 5 5 5 6 6 6 5 5 6 6 7 8 7 8 8 7 8 8 9 11 12 13 13 12 12 12 12 11 10 10 10 10 10 10 9 9 8 9 9 10 10 10
9 8 9 9 10 9 10 10 10 10 10 10 10 10 9 9 9 9 9 8 7 8 7 7 7 7 6 6 6 6 6 6 5 5 5 5 4 5 4 4 5 5 5 6 6 6 6 7 7 6 6 6 6 7 7 7 7 7 7 7 8 9 11 12 12 12 12 11 11 11 10 9 9 9 9 9 9 8 8 8 9 9 10 10 9
9 9 9 10 10 10 11 11 11 11 11 11 12 11 10 10 10 10 10 9 9 8 8 8 8 7 7 6 6 6 6 6 5 4 4 4 4 4 4 5 5 5 6 6 7 6 7 8 8 7 6 5 5 6 7 7 7 6 6 7 8 10 11 12 12 11 11 11 11 10 9 8 8 9 9 9 8 8 8 8 9 9 9 9 9
10 10 10 10 11 11 12 13 13 13 13 13 12 11 10 10 10 10 10 10 9 8 8 8 7 7 6 6 5 5 5 5 5 3 2 3 3 4 4 5 6 6 6 7 8 7 7 8 8 7 6 5 5 6 7 7 7 6 6 6 8 10 11 11 11 11 10 10 10 9 9 8 8 9 9 8 8 8 8 8 9 9 9 9 8
10 10 11 11 12 12 13 13 13 13 13 12 11 10 10 9 9 10 9 9 8 7 7 7 6 5 5 4 3 3 3 3 4 3 2 2 3 3 3 5 6 6 6 7 9 8 7 7 8 7 6 5 5 6 7 8 7 6 6 7 8 10 11 11 10 10 10 9 9 9 8 8 8 9 8 8 8 8 8 8 9 9 9 8 8
10 11 11 11 11 11 12 12 11 11 11 11 10 9 9 8 8 9 8 8 8 6 6 5 4 3 3 3 2 2 2 2 2 3 3 3 3 3 3 4 6 6 6 7 8 8 7 7 7 6 6 6 6 6 7 8 7 6 6 7 8 10 10 11 11 10 9 8 8 8 8 8 8 9 8 8 8 8 8 8 8 9 9 8 8
11 11 11 10 9 9 10 10 9 9 9 8 8 8 7 7 7 7 7 7 6 5 4 3 2 2 2 1 0 0 1 1 2 3 3 4 3 3 3 4 6 7 7 7 8 9 8 7 6 6 6 6 6 7 8 8 8 6 6 7 9 10 9 10 10 10 9 8 8 8 8 8 8 9 8 8 8 8 8 8 8 8 9 9 10
11 11 10 9 8 9 9 9 8 8 7 7 7 7 6 6 5 6 6 5 5 4 4 3 2 1 1 0 0 1 2 3 4 4 4 4 4 4 4 5 6 7 8 8 9 9 8 7 6 6 6 6 7 8 8 9 8 6 6 7 9 10 10 9 9 9 8 7 7 8 7 8 8 8 8 8 8 8 8 8 8 9 9 10 11
11 10 9 9 9 9 9 9 8 7 7 6 6 6 5 5 5 6 6 6 5 5 5 5 4 3 3 2 2 2 2 3 4 5 4 4 4 5 6 6 7 8 8 9 9 10 9 7 7 6 7 7 8 9 9 9 8 7 6 7 8 10 10 9 9 9 7 7 8 7 7 8 8 8 7 7 8 8 8 8 9 10 10 11 12
10 10 9 9 9 9 9 9 7 7 7 7 6 6 5 5 5 6 7 6 6 7 7 6 6 6 5 4 5 5 4 4 4 4 4 3 3 4 6 7 8 8 9 9 9 10 9 7 7 7 8 8 9 10 9 9 8 7 7 7 8 9 9 8 9 9 8 7 8 8 8 8 8 8 7 8 8 8 8 9 10 10 11 12 12
10 10 9 9 9 9 9 8 7 7 7 7 6 6 5 5 6 7 7 7 8 8 8 8 7 5 5 5 5 5 4 4 4 4 3 3 3 4 6 8 9 9 10 10 10 10 9 8 8 9 9 10 10 10 10 9 9 8 8 8 8 8 8 7 8 9 8 8 8 8 8 8 8 7 7 8 8 8 9 10 11 11 11 12 12
10 10 9 9 9 9 9 8 8 8 8 8 7 7 7 8 9 9 8 8 9 9 8 8 7 4 3 4 4 4 4 3 4 3 3 4 4 4 6 8 10 10 11 12 11 11 10 9 9 10 11 11 11 10 9 10 10 10 9 8 7 7 8 8 8 8 8 8 9 9 9 9 8 7 7 8 8 9 10 11 11 11 11 12 14
10 10 9 9 8 9 8 8 8 9 9 9 8 8 9 10 10 9 9 9 9 8 7 6 6 3 2 3 4 4 4 4 4 3 3 4 4 5 6 8 10 11 13 13 12 12 11 10 9 11 13 12 11 10 9 10 11 11 10 8 8 7 7 8 8 8 7 8 9 10 9 9 8 7 7 8 9 10 11 11 11 11 12 14 15
9 9 9 9 8 9 9 9 10 11 10 8 8 9 10 10 9 9 9 8 7 7 6 5 4 3 2 3 4 4 4 4 5 4 5 6 6 7 7 9 10 12 13 13 13 12 12 11 11 12 13 12 11 9 10 11 12 11 10 9 8 8 8 8 8 7 8 9 10 10 9 9 8 7 7 9 10 11 11 11 11 12 14 15 15
10 10 9 9 9 10 10 10 11 11 10 9 8 10 10 10 8 8 8 8 6 6 5 4 3 3 4 5 4 4 4 4 6 7 7 7 9 9 9 10 11 12 13 14 14 13 12 12 12 12 12 11 11 10 11 12 12 11 10 9 9 9 8 9 8 8 9 10 10 10 9 9 7 7 8 11 11 11 12 12 12 14 15 15 15
10 10 10 9 10 11 10 9 10 11 10 9 9 10 10 9 8 7 7 7 6 5 5 3 4 5 5 5 4 4 5 5 7 8 8 9 10 11 11 11 12 13 14 15 14 13 12 12 12 12 12 12 12 12 12 12 12 11 10 10 10 10 9 9 9 10 11 11 10 10 9 8 7 8 10 12 12 12 12 12 14 15 15 15 15
10 11 10 9 10 10 10 9 9 10 8 8 8 9 9 9 8 7 7 6 6 5 4 4 5 6 5 4 4 6 6 7 8 9 10 10 11 11 11 12 13 15 15 15 15 14 13 13 13 13 13 14 14 13 13 12 12 12 11 11 11 11 10 10 10 11 11 11 10 9 8 8 8 10 11 12 12 12 12 13 14 15 15 15 15
10 10 10 10 10 10 10 9 9 9 7 7 7 8 8 8 8 7 6 6 6 5 4 5 7 6 5 5 6 7 7 8 9 10 11 11 11 12 13 14 15 15 16 15 15 15 15 14 14 14 14 14 14 13 13 13 13 12 12 12 12 12 11 11 11 11 11 10 9 8 8 9 10 11 12 13 13 13 13 14 15 15 15 15 15
10 10 10 11 11 10 9 9 10 9 7 6 6 8 8 8 8 8 7 6 6 4 4 7 9 7 7 8 8 8 8 9 10 11 11 12 13 14 14 15 15 15 15 16 16 16 16 15 15 14 14 14 14 13 12 13 13 13 13 13 13 13 12 11 11 12 10 9 9 8 9 10 11 12 13 13 13 14 14 15 15 15 15 15 16
9 9 10 10 10 10 9 9 9 9 8 6 6 7 8 8 8 8 7 7 6 5 5 8 9 8 9 10 10 10 10 11 11 12 12 13 14 15 15 15 15 15 16 17 17 17 17 16 15 14 14 14 13 13 13 14 14 14 14 14 14 13 13 12 12 11 10 8 8 9 10 10 11 12 14 14 14 14 15 15 15 15 16 16 16
9 8 9 10 10 10 9 9 9 9 8 6 5 6 9 9 7 8 8 7 6 5 6 9 10 10 11 12 12 12 12 12 12 12 14 14 15 15 15 15 15 16 16 17 17 17 17 16 15 14 14 14 13 14 14 14 15 15 14 15 15 14 13 12 11 10 9 8 9 10 11 11 12 13 14 14 15 15 15 15 16 16 16 16 16
10 9 8 9 10 10 9 9 8 7 8 7 5 6 11 11 8 8 8 6 6 7 8 10 12 12 12 12 13 13 14 14 13 13 14 15 15 14 14 15 15 16 16 17 17 17 17 16 15 14 13 14 14 15 15 15 16 16 16 15 14 13 13 12 11 10 9 9 11 11 11 11 12 14 15 15 15 15 15 15 16 16 16 16 16
9 9 8 9 9 9 10 10 8 7 8 8 5 6 11 12 10 8 8 7 7 8 9 10 12 13 13 13 13 15 16 16 15 15 15 15 14 13 13 14 15 15 16 17 17 17 17 15 15 14 13 15 16 16 17 17 17 17 16 15 14 12 12 11 10 9 9 11 12 11 11 12 13 14 15 15 15 15 15 16 16 16 16 15 15
9 8 8 8 8 9 9 9 9 9 8 8 7 7 10 12 11 9 9 10 10 9 9 10 11 13 14 14 14 15 16 17 17 16 16 15 13 13 13 14 14 15 16 17 17 16 16 15 14 14 15 17 18 17 18 18 18 17 15 14 13 12 11 11 10 10 10 12 12 11 11 12 14 15 15 15 14 15 15 15 16 15 15 15 15
8 8 8 7 7 9 9 8 9 9 9 9 9 7 8 12 13 11 10 11 12 11 10 11 12 13 14 15 15 15 16 17 18 16 15 15 13 13 14 14 15 15 16 16 16 16 15 15 15 16 17 19 19 20 19 19 18 16 14 13 12 11 11 10 11 12 12 12 12 12 12 13 14 15 15 14 14 14 15 15 15 15 15 14 14
7 6 7 7 7 8 9 8 8 9 9 9 9 7 7 10 13 13 13 13 13 12 12 12 13 13 14 16 16 16 17 18 17 16 16 16 15 15 15 15 15 15 15 15 15 15 15 16 17 18 19 20 21 21 20 18 16 15 13 12 11 10 11 11 12 13 13 12 12 12 12 13 14 15 15 14 14 14 14 14 14 14 14 13 13
7 6 6 7 7 7 8 8 9 9 9 9 9 8 8 9 11 14 15 14 13 13 13 13 13 14 14 16 17 16 16 17 18 17 17 17 17 17 17 16 15 15 15 15 15 16 17 18 19 20 20 21 21 20 19 17 15 14 13 11 10 10 11 12 12 13 13 12 12 12 13 13 14 14 14 14 14 14 14 13 13 12 13 12 12
7 6 6 7 7 7 7 9 9 9 9 9 10 10 9 9 10 12 14 15 15 14 13 14 14 14 14 15 16 16 16 16 17 18 17 17 17 17 17 17 17 16 17 17 17 18 19 20 21 21 21 21 20 19 17 16 14 13 12 11 11 11 12 12 12 13 12 12 12 12 13 13 13 14 14 13 13 13 13 12 12 12 11 11 11
7 6 6 7 7 7 8 8 8 8 9 9 9 9 9 9 10 11 13 15 16 16 15 15 15 14 14 14 16 16 16 16 17 18 18 18 18 19 19 19 19 19 19 20 20 20 21 21 22 21 20 20 18 17 16 15 13 12 11 11 11 11 12 13 12 12 12 12 12 12 12 13 13 13 13 12 13 12 12 11 11 11 11 10 10
8 7 6 6 7 7 8 8 8 9 9 8 7 8 9 9 10 11 11 14 16 17 17 16 16 15 14 14 15 16 16 16 17 18 18 19 19 20 20 20 20 20 20 21 21 22 22 22 21 21 19 18 16 15 14 14 13 11 10 11 11 11 12 12 12 12 12 11 12 12 12 12 12 12 12 11 12 11 11 10 10 9 9 8 7
8 7 6 6 7 7 7 8 8 8 9 7 6 7 8 9 11 11 11 12 15 17 17 17 17 16 15 15 15 15 16 16 18 19 19 20 20 20 20 20 20 20 21 21 21 21 21 20 20 19 18 16 15 14 14 12 11 11 10 10 11 11 11 11 11 11 11 11 11 12 11 11 11 11 11 10 10 10 9 8 8 8 7 6 5
8 7 7 7 7 7 7 8 8 8 8 7 7 7 7 8 10 11 12 12 13 15 16 17 17 16 16 15 15 15 16 17 18 19 20 20 20 20 19 19 19 19 19 20 20 19 19 19 18 17 17 15 14 13 13 11 10 10 10 10 10 11 10 10 10 10 10 10 10 11 11 10 10 10 9 9 9 8 8 7 6 6 5 5 4
8 8 7 6 6 6 6 7 8 8 8 8 7 8 7 8 9 11 12 13 13 14 15 16 16 16 16 15 15 16 16 17 18 19 20 20 19 19 18 18 18 18 18 18 18 17 17 17 17 15 14 13 12 12 12 10 10 10 10 10 10 10 10 10 10 10 10 10 10 10 10 9 9 8 8 7 7 6 6 5 4 4 4 3 2
9 8 7 6 6 5 5 6 7 8 8 8 8 8 8 8 9 10 12 13 14 14 15 16 16 16 16 16 16 17 17 19 19 20 20 19 19 18 18 17 17 16 16 16 16 15 14 14 15 13 12 11 10 10 10 10 9 9 9 10 10 10 10 9 10 9 9 9 10 9 9 9 8 8 7 6 5 4 3 2 2 2 1 1 1
9 8 8 7 6 5 5 5 6 7 7 8 8 8 8 8 9 9 11 12 13 14 15 16 16 16 16 17 17 17 18 19 19 20 20 19 18 18 17 17 16 16 15 15 15 15 13 12 12 11 10 10 9 8 8 8 8 8 9 9 10 11 10 10 10 10 9 9 9 9 8 8 8 7 6 5 3 2 1 1 1 1 1 1 1
10 9 8 7 6 5 5 4 4 6 6 7 7 8 8 8 9 9 10 11 12 14 15 15 16 17 17 17 17 17 17 18 18 19 19 18 17 17 16 16 15 15 14 14 14 14 13 12 11 9 8 8 7 6 6 7 7 8 8 8 9 10 11 11 10 10 9 8 8 9 8 7 7 6 5 4 3 1 1 2 3 3 4 4 4
11 10 9 8 7 6 5 5 4 4 5 6 7 7 8 8 9 8 9 10 11 12 13 14 15 16 16 16 16 16 16 16 16 16 17 16 16 15 15 14 14 14 13 12 13 12 12 11 10 9 7 7 6 5 6 6 6 7 7 7 8 9 10 10 10 10 9 8 8 8 8 7 6 6 5 4 3 2 2 3 4 4 4 6 7
11 10 9 8 8 7 6 5 4 4 4 5 6 7 7 8 8 8 9 10 10 10 11 12 13 14 14 15 15 15 14 14 14 14 14 14 14 14 13 13 12 12 11 10 10 10 10 10 9 8 7 6 5 5 5 6 6 6 6 6 7 8 9 9 9 9 8 7 7 7 7 6 5 5 5 3 2 1 2 4 5 4 4 7 9
12 11 10 9 9 8 7 7 6 5 4 5 6 6 6 7 8 8 9 9 9 9 9 10 10 11 11 12 12 12 13 12 12 12 12 12 11 11 11 11 10 11 10 10 9 8 7 7 7 6 6 5 5 5 5 5 5 5 5 5 6 7 8 8 8 8 7 6 6 5 6 5 4 4 4 2 1 1 2 4 5 6 6 7 9
12 11 11 11 10 10 9 8 7 6 5 4 5 5 5 6 7 8 8 8 8 8 9 9 9 9 9 9 9 10 10 10 10 10 10 9 9 9 9 9 9 9 9 8 8 7 5 5 5 5 5 4 4 4 4 4 4 4 4 4 5 6 6 6 7 6 5 5 5 5 4 4 4 3 3 1 0 2 3 4 5 7 7 6 7
12 12 12 12 12 11 10 9 8 7 6 4 4 5 5 5 5 7 7 7 8 8 9 9 8 8 7 7 7 7 7 8 7 7 8 8 8 8 8 7 7 7 7 7 7 7 5 4 5 4 5 4 3 2 2 2 3 4 4 3 4 5 5 5 5 5 4 4 4 4 3 3 3 1 1 0 1 3 4 5 6 6 6 6 7
12 12 12 13 13 12 11 10 9 8 7 5 4 4 4 4 4 5 6 6 6 7 8 9 9 8 7 6 6 6 6 6 6 5 6 6 6 6 7 6 6 6 6 6 6 6 4 3 4 4 4 4 2 2 2 2 2 3 4 3 3 4 4 4 4 4 4 4 3 3 3 3 2 1 0 1 2 4 4 6 6 6 6 7 7
12 12 12 13 13 13 12 11 10 9 8 6 5 5 4 3 3 4 4 4 5 6 7 8 8 8 7 7 6 6 6 5 5 4 4 4 4 5 5 4 4 5 5 5 5 5 4 3 3 4 4 4 2 2 2 2 2 3 3 2 3 3 4 4 3 3 3 4 3 2 2 2 2 1 1 2 3 4 5 7 8 8 8 8 8
13 13 12 12 14 14 13 12 11 10 9 8 6 6 5 3 2 2 2 3 3 4 5 6 7 7 7 7 7 6 6 6 5 5 4 4 3 4 3 3 3 4 4 4 4 4 3 3 3 3 3 3 2 2 2 2 2 2 2 2 2 2 3 3 2 3 3 2 2 2 2 1 1 1 1 2 3 5 6 7 8 9 9 8 8
14 14 13 13 13 14 14 13 12 11 10 9 8 7 6 5 4 2 1 1 2 3 3 4 6 6 6 6 7 7 6 6 5 5 4 4 3 3 3 2 3 3 3 3 3 3 3 2 2 2 1 1 1 2 2 1 1 1 1 1 1 1 2 2 2 2 2 2 2 2 1 1 0 1 2 2 3 6 7 8 7 8 9 9 8
15 14 14 13 13 13 13 13 12 12 11 10 10 9 8 6 5 4 3 2 2 2 2 3 4 4 4 4 6 6 6 6 5 4 4 4 3 3 3 2 2 2 1 2 3 2 2 1 1 1 0 0 1 1 2 1 1 1 0 1 1 0 1 0 1 1 1 1 1 1 1 2 3 3 4 4 4 6 8 8 7 7 6 7 8
16 15 14 14 13 13 13 13 12 12 12 11 11 10 9 7 6 6 5 3 3 2 2 2 3 3 3 3 4 4 5 5 5 5 4 4 3 3 4 3 3 3 2 2 3 2 1 1 1 1 0 1 1 2 2 2 2 1 1 1 1 1 2 2 0 0 1 1 0 1 1 2 3 4 5 6 6 6 7 8 8 9 8 7 8
16 15 15 15 14 14 13 13 12 12 12 12 12 11 10 9 7 6 6 5 4 3 3 3 3 3 3 3 3 3 3 4 4 4 4 3 4 4 4 4 4 3 3 3 4 3 2 2 2 2 1 2 2 2 3 3 3 2 3 3 2 3 3 3 1 1 1 2 2 2 1 2 4 5 5 6 7 6 7 8 7 7 8 7 7
Wind_Direction
113 114 115 115 117 112 109 110 115 119 118 114 113 115 117 117 123 132 136 140 140 136 140 154 155 150 175 196 203 201 198 192 190 189 135 143 146 149 148 146 148 146 137 129 125 122 119 118 116 108 97 89 89 90 90 86 82 77 73 72 74 82 93 106 114 116 115 112 110 107 102 99 100 103 105 103 102 102 98 95 91 84 77 69 62
114 116 115 114 112 108 108 111 115 115 115 114 113 114 114 115 123 132 131 129 125 129 137 148 152 151 182 204 205 202 199 192 175 160 151 153 156 158 153 145 145 143 135 131 128 124 123 120 115 105 97 90 88 90 90 88 84 78 74 72 76 85 98 110 116 116 116 113 110 106 101 100 101 103 104 103 102 100 95 93 88 78 71 64 57
115 118 116 115 112 108 111 116 118 118 117 118 117 116 117 120 126 128 120 120 126 138 144 143 146 153 186 204 199 188 180 174 161 157 157 157 155 155 149 138 133 134 129 124 122 120 120 114 103 95 91 89 89 93 94 93 86 80 76 75 79 90 103 113 116 113 111 107 105 103 98 97 100 105 107 107 106 101 94 90 83 74 67 59 54
113 117 117 120 120 119 121 123 123 121 122 123 120 118 121 124 124 123 121 133 141 140 140 140 142 153 177 184 174 165 161 157 149 152 158 158 154 148 144 134 128 127 121 113 110 111 112 107 100 94 91 91 92 95 97 95 89 81 77 79 86 96 107 112 113 110 107 104 102 99 95 94 99 108 113 113 110 102 94 88 79 70 62 56 53
113 114 117 122 125 127 128 125 121 119 119 119 117 116 120 122 121 121 125 130 128 128 131 132 136 148 158 157 152 150 150 146 142 152 157 156 151 143 140 132 127 122 115 108 105 108 110 109 109 107 102 99 99 100 100 97 90 84 78 83 93 102 108 111 111 110 106 103 100 96 94 96 104 114 116 114 108 99 92 85 76 66 59 54 54
111 113 116 119 120 122 124 122 119 120 120 118 115 117 121 123 120 117 116 114 114 118 122 128 136 144 145 142 144 143 140 134 138 152 149 150 146 133 132 131 126 122 119 112 110 115 120 121 122 120 114 105 103 106 104 100 91 84 81 86 99 105 107 110 111 108 103 100 97 97 98 100 108 116 116 110 104 97 89 81 71 62 56 55 59
111 114 113 111 112 117 120 119 119 119 117 115 115 120 123 121 114 108 105 105 109 116 124 134 139 140 137 134 137 129 122 124 133 145 142 145 138 122 128 131 127 129 126 117 116 123 131 131 128 124 117 111 107 108 107 103 95 88 84 89 101 104 105 109 111 107 101 98 96 96 98 100 107 114 114 109 102 95 85 75 66 59 57 59 63
108 107 104 104 109 115 117 115 116 116 116 117 119 121 121 118 115 112 110 111 117 126 135 138 139 141 134 130 122 101 102 114 129 147 154 147 130 126 132 130 127 132 132 123 122 127 134 131 125 121 116 114 112 112 112 109 104 96 91 96 101 102 106 112 113 109 103 98 95 95 97 101 108 113 113 108 101 92 80 69 61 57 59 62 64
105 101 100 103 109 111 111 111 113 115 118 121 121 121 120 120 121 120 119 123 133 141 141 138 142 140 131 130 106 82 98 119 144 164 169 157 145 143 142 136 131 135 139 132 127 128 131 127 120 116 114 113 115 120 119 115 110 103 101 105 106 103 107 115 117 114 107 101 97 94 97 102 109 112 111 106 97 85 74 64 57 57 62 65 69
101 100 102 105 107 105 103 104 106 107 112 115 115 117 115 113 115 116 118 127 138 140 137 136 139 144 155 165 129 244 214 195 201 197 186 173 170 163 157 150 140 141 144 143 135 132 132 128 123 119 119 118 122 128 122 115 111 108 109 111 110 105 105 112 114 111 108 105 100 94 95 102 107 108 107 101 90 77 67 60 58 62 67 71 78
103 106 107 108 104 100 98 98 99 102 107 108 106 105 105 108 112 113 115 120 123 120 115 113 115 121 154 151 174 228 209 214 218 208 198 187 193 182 165 158 154 151 151 154 146 137 135 132 131 129 127 127 128 127 121 116 112 113 113 114 113 109 111 112 107 108 112 109 100 94 97 104 105 105 103 94 81 70 62 60 64 69 74 80 85
110 112 110 107 102 97 95 94 96 99 100 96 94 97 102 110 117 116 111 111 109 103 99 97 96 95 90 93 108 127 151 179 188 185 188 184 192 190 178 170 164 163 160 162 154 143 141 139 141 137 133 134 131 126 123 120 116 115 115 117 116 113 117 117 112 116 116 106 98 96 99 103 104 104 99 87 76 68 63 66 72 77 83 88 90
113 110 107 104 100 95 92 92 94 93 92 92 91 94 105 113 114 108 103 104 100 94 96 95 88 91 104 112 113 114 123 139 147 148 155 153 165 181 185 178 167 167 164 163 158 151 147 149 148 140 138 138 133 131 129 124 119 117 117 118 116 112 110 108 109 110 106 101 100 98 100 104 105 102 92 82 73 67 69 75 78 83 89 92 92
109 109 107 105 102 100 99 98 99 98 94 90 93 103 112 108 98 94 94 96 90 86 90 94 91 95 113 117 110 106 112 125 124 123 130 130 144 162 176 176 168 168 166 163 163 159 153 156 154 141 138 137 135 136 133 128 122 119 118 116 112 110 107 101 96 94 94 98 101 101 105 107 103 96 86 78 71 72 78 81 84 89 93 91 89
110 111 107 106 104 101 98 97 97 97 96 93 97 106 106 97 92 94 94 90 86 83 84 90 92 92 107 107 99 101 110 113 106 112 122 122 134 139 155 166 163 165 166 165 166 163 157 160 157 142 136 137 139 141 137 130 124 121 120 115 109 107 106 98 88 89 94 100 105 108 110 106 97 89 81 76 75 81 84 86 91 94 92 87 86
107 106 103 101 100 96 93 95 98 98 100 102 102 100 95 91 90 91 87 83 82 82 80 80 80 74 80 98 100 103 105 106 105 108 108 114 124 124 139 153 153 158 161 164 165 161 158 159 155 141 137 140 141 141 136 128 123 121 119 114 108 101 97 93 90 98 105 110 113 111 107 100 93 86 79 80 84 87 89 93 96 94 89 86 87
104 100 99 99 96 94 97 103 102 100 100 102 99 91 85 83 82 81 78 75 73 73 70 64 69 68 56 67 76 84 90 100 111 117 112 112 120 120 128 139 144 150 154 157 158 156 156 158 154 142 137 138 138 138 132 125 121 119 118 114 109 102 97 95 96 107 114 116 114 109 103 96 91 85 84 88 90 92 95 98 96 91 89 88 89
102 100 98 98 98 98 103 106 100 96 97 96 91 86 83 81 78 75 72 67 65 65 63 56 57 55 47 45 47 71 92 106 115 121 117 112 115 117 120 129 137 144 147 149 151 153 153 156 153 140 135 135 135 134 128 123 119 118 117 114 109 103 100 103 107 114 117 115 111 105 99 94 89 88 93 94 93 97 100 98 95 93 90 88 88
107 103 101 103 104 106 108 105 98 92 91 91 86 85 87 87 83 77 73 68 63 60 55 43 44 48 49 50 58 82 101 115 121 124 122 117 116 116 117 123 132 140 144 143 145 148 147 150 146 136 136 137 136 133 127 123 119 116 115 112 109 104 106 112 117 120 117 111 106 102 97 93 91 96 98 96 98 101 101 99 96 92 88 87 86
113 105 106 111 108 110 111 106 97 89 87 85 83 86 88 88 84 78 76 76 70 61 44 35 50 55 51 61 81 92 102 113 119 122 123 121 119 118 118 122 128 135 138 139 141 144 144 143 140 136 139 139 135 131 126 123 118 115 113 110 108 108 113 118 120 118 112 107 102 98 95 96 100 103 101 100 103 103 102 100 95 89 87 85 83
108 105 108 111 109 111 109 105 97 90 87 83 82 85 85 86 86 83 84 85 79 60 41 52 66 70 67 78 92 99 107 109 111 117 120 121 121 121 122 124 126 130 134 137 140 142 142 140 138 138 139 136 131 127 124 122 117 113 112 110 110 113 116 118 117 112 107 103 99 96 98 104 107 105 103 105 106 105 104 98 91 87 84 81 80
104 108 110 107 105 105 105 103 99 95 90 84 85 88 84 81 85 89 88 86 78 58 50 64 73 81 86 92 100 104 106 104 107 114 117 119 121 122 125 126 127 129 132 135 137 137 137 137 137 138 136 132 128 124 122 119 116 113 113 114 114 115 116 117 113 107 104 101 98 98 104 108 108 106 107 108 108 107 102 95 89 84 81 80 80
108 106 105 104 101 101 105 106 106 103 98 91 87 93 90 83 85 89 84 76 68 52 52 69 75 80 87 92 98 100 100 101 106 113 116 118 118 120 124 125 126 127 128 130 132 133 134 135 135 135 134 130 127 123 119 117 116 115 115 116 115 116 116 115 110 104 100 99 101 105 110 110 108 108 110 111 110 107 99 92 87 83 82 83 84
111 105 103 106 105 108 107 106 112 107 100 98 92 97 96 89 85 85 84 76 67 62 64 80 85 84 86 89 94 96 96 99 105 109 112 113 113 116 121 123 125 127 128 127 128 133 135 136 135 135 133 130 126 121 118 116 115 115 115 115 115 116 116 112 106 102 100 103 108 111 112 110 110 111 113 112 110 104 97 90 87 85 86 86 87
111 108 105 105 107 109 105 109 116 106 98 102 98 98 99 97 94 90 91 82 74 80 81 88 93 92 91 92 95 95 96 101 104 107 109 109 109 112 118 122 125 126 127 126 129 135 138 136 134 134 134 129 124 120 118 116 115 115 115 115 115 116 113 108 101 100 105 111 113 114 112 111 112 114 114 114 110 102 95 91 89 88 88 88 87
109 108 105 103 106 106 105 112 113 103 102 106 102 94 98 103 105 100 98 88 76 81 89 92 94 94 95 98 100 100 102 103 105 106 108 109 109 109 112 118 122 124 126 128 132 136 137 134 131 133 133 127 122 120 119 117 116 116 117 117 116 114 107 102 100 103 112 116 115 114 111 112 116 117 117 115 109 101 97 94 92 90 89 87 85
108 107 104 100 101 102 106 109 106 101 98 98 100 94 99 105 102 96 92 85 77 79 91 94 93 96 99 103 105 105 105 104 104 107 109 109 109 111 112 113 117 121 127 130 132 134 134 130 130 134 131 125 122 121 118 118 118 118 119 118 115 110 103 102 106 111 116 118 116 113 113 117 120 120 120 115 108 102 99 96 94 91 88 85 82
107 107 105 101 98 100 104 106 106 106 97 92 92 86 96 101 98 94 87 80 78 81 91 97 97 100 102 105 107 105 104 104 103 106 108 106 106 112 115 114 115 119 125 128 128 131 132 129 130 132 128 125 124 121 119 119 120 120 119 116 111 107 104 107 114 117 119 118 116 115 117 121 124 124 122 115 108 103 100 98 95 91 87 83 79
107 104 104 104 100 101 106 109 112 110 104 101 95 83 81 87 92 93 85 81 83 86 92 99 100 99 100 103 104 103 104 105 103 105 108 105 104 109 113 113 113 116 120 122 125 127 129 129 129 128 126 125 123 121 120 121 121 119 115 110 106 104 107 113 118 120 120 120 118 118 121 125 128 126 122 116 109 105 102 99 95 91 87 82 78
110 105 102 103 99 100 106 107 109 108 105 106 102 96 84 74 81 85 85 86 88 92 97 100 99 98 99 99 97 96 98 102 103 104 104 103 103 107 110 111 112 115 117 120 124 126 127 127 126 124 124 122 120 121 121 121 120 116 112 108 106 107 111 116 120 121 122 122 120 121 124 128 130 128 124 118 111 106 103 100 96 92 87 82 79
115 110 103 102 103 104 103 100 103 103 100 101 100 98 88 77 77 81 88 93 93 96 100 101 100 99 99 96 94 93 93 96 98 99 100 101 103 106 109 110 112 115 117 120 122 123 123 123 122 121 121 120 120 122 122 120 117 115 113 112 111 112 114 117 121 122 123 124 122 123 128 131 132 129 126 120 112 107 104 101 98 94 89 86 84
123 116 110 110 111 111 107 103 102 98 94 92 92 93 89 85 83 82 89 95 99 102 102 102 102 102 101 99 97 97 96 95 94 96 99 102 104 108 109 111 112 113 115 118 119 119 119 119 120 120 120 120 122 123 122 119 114 114 115 113 112 115 117 119 122 124 124 125 123 124 128 131 132 131 128 122 113 108 106 104 101 97 94 92 91
132 124 120 119 117 116 111 107 101 96 97 92 87 90 92 91 90 86 86 91 98 102 103 104 105 106 105 104 102 100 99 97 96 98 101 104 106 108 109 111 112 113 114 115 116 117 118 119 120 121 122 123 125 125 122 118 115 114 113 111 111 114 118 121 124 126 125 125 123 123 127 130 132 133 131 124 116 112 110 108 106 103 101 100 98
140 134 129 123 121 119 112 107 101 97 102 103 97 93 91 93 95 92 87 86 91 97 102 104 106 107 105 104 102 100 99 98 100 103 104 105 107 108 110 111 112 113 114 115 116 117 119 121 123 125 126 128 130 127 121 119 118 115 110 109 112 114 118 121 124 125 124 122 120 120 124 129 133 135 134 128 121 118 115 114 112 110 108 105 100
148 143 135 126 123 120 112 105 101 98 101 106 104 97 93 95 98 96 91 88 89 94 99 101 103 105 105 104 103 102 101 101 105 107 107 107 108 110 111 111 111 112 113 115 116 119 122 124 125 127 129 130 132 129 123 121 117 112 108 107 109 112 115 119 122 123 122 119 116 117 121 128 133 136 136 133 129 127 123 122 121 119 114 107 100
155 150 143 133 125 122 115 105 99 98 101 106 106 102 101 100 101 100 95 92 92 94 96 98 101 103 105 107 107 107 106 107 110 110 109 109 110 109 109 108 109 111 112 114 117 120 123 125 125 126 129 130 133 132 126 121 114 109 106 103 104 107 110 116 119 119 121 118 113 115 119 125 131 134 137 137 138 138 134 134 133 126 121 116 108
161 158 153 145 134 126 117 106 98 96 100 104 106 105 104 102 104 103 98 96 96 95 96 97 99 102 105 107 108 110 112 114 115 114 113 113 113 112 111 111 112 113 114 116 117 118 122 124 125 129 134 135 136 135 127 120 113 105 100 99 102 105 109 114 115 115 118 118 115 114 117 123 130 135 138 143 149 150 147 156 156 140 130 127 135
167 167 165 159 149 136 123 112 100 95 97 102 106 106 106 104 103 104 102 98 97 96 95 97 98 100 102 104 107 110 114 117 118 118 118 118 118 117 116 117 117 118 119 120 121 121 124 125 125 132 139 138 136 133 122 116 110 100 93 96 104 109 113 115 116 117 117 117 117 114 113 120 126 132 138 141 148 153 173 253 273 288 300 300 289
175 176 175 169 160 148 133 123 110 100 95 98 104 106 106 104 102 104 104 100 98 96 95 96 97 98 100 103 106 110 113 116 117 118 119 120 120 119 119 120 121 121 123 125 126 126 128 128 128 133 136 131 127 123 113 105 98 94 90 94 107 115 118 117 117 119 118 119 119 115 114 116 120 127 132 133 142 159 223 264 271 285 301 306 306
182 182 181 177 167 160 149 137 127 114 101 95 98 103 106 106 104 105 106 104 100 97 95 96 97 98 100 102 105 108 110 112 115 117 119 121 122 122 122 122 122 122 123 127 129 129 130 130 128 128 126 119 115 106 95 88 83 85 88 93 107 116 117 117 118 117 118 121 122 120 118 117 119 124 125 130 152 174 229 260 264 271 296 310 314
187 187 186 184 176 169 162 155 151 136 117 102 96 99 104 107 107 105 104 106 105 102 100 99 99 99 100 102 103 105 107 109 112 114 118 121 123 124 123 122 124 124 124 127 126 124 126 127 123 121 118 111 105 94 82 78 75 76 85 94 106 112 113 114 115 114 115 117 122 124 122 120 119 110 102 112 152 189 241 266 276 289 316 320 319
189 191 190 188 186 179 173 171 167 160 140 115 100 98 101 105 108 106 103 104 108 110 110 107 104 102 102 103 103 105 107 108 112 114 116 119 120 121 120 122 126 126 126 128 127 124 123 123 122 120 113 103 95 86 73 69 70 73 85 96 101 104 108 111 109 107 109 110 110 114 119 119 109 93 90 102 167 270 275 279 298 320 333 323 318
192 193 193 192 192 188 184 182 175 171 160 131 109 100 98 101 103 104 104 105 108 111 113 112 110 108 106 106 106 106 108 109 112 113 113 114 114 116 119 125 129 128 127 128 128 128 126 124 122 116 104 92 84 78 66 58 60 66 75 88 94 94 98 102 100 99 103 109 104 98 106 105 92 95 110 125 308 326 313 311 325 333 330 318 318
194 193 195 194 195 194 193 189 181 177 170 150 124 108 99 98 97 97 98 101 106 109 110 112 112 111 113 112 112 110 109 109 110 109 108 107 110 115 121 128 131 131 130 127 125 128 132 129 119 107 95 83 67 56 47 41 51 64 72 80 87 86 86 84 90 95 92 105 108 97 106 103 84 100 132 87 321 329 325 328 339 341 332 324 327
196 194 196 195 195 198 199 194 186 181 176 164 141 120 109 103 97 97 97 100 104 106 107 111 112 113 118 121 120 118 115 113 111 107 102 103 108 113 118 126 128 126 122 119 122 126 126 114 99 95 94 88 71 37 17 14 38 61 71 77 86 93 94 83 83 90 86 97 106 95 109 113 92 79 320 344 333 327 328 335 341 343 340 340 343
200 198 197 194 196 199 201 198 193 187 181 174 157 139 137 132 115 110 104 101 101 101 103 104 107 113 118 122 122 122 122 122 120 115 107 105 101 101 109 117 117 115 114 113 116 117 110 97 89 88 90 91 88 65 33 13 27 55 68 77 89 86 83 80 75 78 74 82 95 91 101 120 103 61 341 337 327 323 332 340 343 344 344 349 353
204 203 198 193 196 199 200 199 197 195 186 179 173 165 166 173 169 146 111 99 98 98 107 109 110 113 114 118 121 122 125 126 128 128 127 126 112 106 115 124 124 119 114 110 106 112 111 107 97 82 78 85 93 83 65 43 30 46 56 73 83 63 62 73 72 73 72 70 83 83 83 118 125 48 326 316 321 326 336 343 347 345 343 350 356
205 205 201 196 198 200 202 201 199 199 193 186 186 186 186 191 200 194 167 143 116 99 114 120 115 114 112 115 117 117 121 123 128 134 134 135 131 128 131 132 126 117 114 116 113 118 124 136 132 99 77 73 74 67 63 62 60 63 71 87 95 44 51 75 70 64 71 76 69 67 57 4 332 305 318 334 327 330 336 345 353 345 338 342 347
207 207 203 200 201 202 205 206 202 199 196 192 194 198 197 197 208 211 211 209 156 129 141 132 118 119 120 119 115 113 115 117 122 128 129 131 130 129 126 107 92 81 87 111 111 114 128 153 163 132 164 314 354 22 39 30 20 52 163 147 138 228 333 43 82 67 44 80 67 44 19 344 321 304 327 334 314 325 337 342 350 344 339 340 334
209 208 206 204 204 204 207 209 206 200 197 196 198 202 202 200 207 212 212 212 189 177 180 150 131 136 135 129 122 117 116 116 119 120 121 125 122 116 111 95 85 71 39 60 77 77 86 52 21 33 343 324 333 337 358 354 344 339 281 246 225 238 270 294 351 42 333 40 87 294 294 309 305 301 319 323 311 324 335 336 348 348 349 347 333
212 210 210 209 206 205 209 211 209 205 200 201 203 202 202 200 204 211 211 207 200 200 198 179 167 161 156 140 130 130 131 132 130 125 125 126 122 118 112 102 94 83 53 42 51 47 37 27 32 39 360 341 342 342 350 344 335 324 300 284 272 261 255 267 275 257 306 308 267 268 259 273 304 307 303 308 316 327 327 329 352 355 345 343 334
Height
5888 5889 5890 5891 5892 5892 5893 5894 5894 5895 5896 5896 5897 5897 5897 5898 5899 5900 5900 5901 5901 5901 5901 5902 5903 5901 5901 5902 5903 5904 5904 5905 5905 5905 5906 5906 5907 5907 5907 5907 5908 5908 5908 5907 5907 5907 5908 5909 5909 5910 5911 5911 5911 5912 5912 5912 5913 5913 5913 5913 5914 5914 5914 5915 5915 5915 5916 5916 5916 5916 5916 5916 5916 5917 5918 5918 5918 5919 5919 5919 5919 5919 5919 5919 5918
5889 5890 5891 5891 5892 5893 5894 5895 5895 5896 5896 5896 5897 5898 5898 5898 5899 5899 5900 5900 5899 5899 5900 5902 5902 5901 5901 5902 5903 5904 5904 5904 5905 5905 5906 5907 5907 5907 5907 5908 5908 5908 5908 5908 5908 5908 5909 5910 5910 5910 5911 5912 5912 5912 5913 5913 5914 5914 5914 5914 5914 5914 5915 5915 5916 5916 5917 5917 5917 5917 5917 5917 5917 5918 5919 5919 5920 5920 5920 5920 5920 5920 5920 5920 5919
5890 5891 5892 5893 5893 5894 5895 5896 5896 5897 5897 5897 5898 5898 5898 5898 5898 5898 5898 5899 5899 5900 5901 5901 5901 5901 5902 5903 5904 5905 5904 5904 5905 5906 5907 5907 5908 5908 5908 5908 5908 5908 5908 5908 5909 5909 5910 5911 5911 5911 5912 5913 5913 5913 5913 5914 5914 5915 5915 5915 5915 5915 5915 5916 5916 5918 5918 5918 5918 5918 5918 5918 5918 5919 5920 5921 5921 5921 5921 5921 5921 5921 5921 5920 5920
5891 5892 5893 5894 5895 5896 5896 5896 5897 5897 5897 5898 5898 5898 5898 5897 5898 5898 5898 5899 5900 5900 5901 5901 5901 5902 5903 5904 5905 5905 5905 5905 5906 5907 5907 5908 5908 5908 5908 5908 5909 5909 5909 5909 5910 5910 5911 5911 5912 5913 5913 5914 5914 5914 5914 5915 5915 5915 5915 5916 5916 5916 5916 5917 5918 5919 5919 5919 5919 5919 5919 5919 5919 5920 5921 5922 5922 5922 5922 5922 5922 5922 5922 5921 5921
5893 5893 5894 5896 5897 5897 5897 5897 5897 5897 5897 5897 5898 5898 5897 5897 5897 5898 5900 5901 5901 5900 5901 5901 5902 5903 5904 5905 5906 5906 5906 5906 5907 5907 5908 5908 5908 5909 5909 5909 5910 5910 5910 5910 5911 5911 5912 5912 5913 5914 5914 5914 5915 5915 5915 5915 5915 5916 5916 5916 5917 5917 5918 5918 5919 5919 5920 5919 5919 5919 5920 5920 5921 5922 5922 5922 5923 5923 5923 5923 5923 5923 5922 5922 5922
5894 5894 5895 5896 5897 5898 5898 5898 5898 5898 5898 5898 5898 5898 5898 5898 5899 5900 5901 5901 5901 5901 5901 5902 5903 5905 5905 5906 5906 5906 5906 5906 5907 5907 5908 5908 5908 5909 5910 5910 5910 5910 5910 5911 5912 5913 5913 5913 5914 5914 5915 5915 5916 5916 5915 5916 5916 5917 5917 5917 5917 5918 5919 5919 5919 5920 5920 5920 5920 5920 5921 5922 5923 5923 5923 5923 5924 5924 5924 5924 5924 5924 5923 5923 5922
5894 5895 5895 5897 5898 5899 5899 5899 5899 5899 5899 5899 5899 5899 5899 5899 5900 5901 5901 5901 5902 5902 5902 5903 5904 5905 5906 5906 5906 5906 5906 5907 5907 5908 5908 5908 5909 5909 5910 5910 5910 5911 5911 5912 5913 5913 5914 5914 5914 5915 5916 5916 5916 5917 5916 5916 5917 5917 5918 5918 5918 5920 5920 5920 5921 5921 5921 5921 5921 5922 5922 5923 5924 5924 5924 5924 5925 5925 5925 5925 5925 5924 5924 5924 5923
5895 5895 5896 5897 5898 5899 5899 5900 5900 5900 5900 5900 5900 5900 5900 5900 5901 5900 5901 5902 5902 5902 5903 5904 5905 5906 5906 5906 5906 5906 5906 5907 5907 5908 5908 5908 5909 5910 5910 5910 5911 5912 5912 5913 5914 5914 5915 5915 5915 5916 5916 5917 5917 5917 5917 5917 5918 5918 5919 5919 5920 5921 5921 5921 5922 5922 5923 5923 5923 5924 5924 5924 5925 5925 5925 5926 5926 5926 5926 5926 5925 5925 5925 5925 5924
5896 5897 5897 5898 5899 5899 5900 5900 5901 5901 5901 5900 5900 5901 5901 5901 5901 5901 5901 5902 5903 5903 5904 5905 5906 5906 5906 5906 5906 5906 5906 5907 5907 5908 5908 5909 5909 5910 5911 5911 5912 5912 5913 5914 5914 5915 5916 5916 5917 5917 5917 5917 5918 5918 5918 5918 5918 5919 5920 5920 5921 5921 5922 5922 5923 5923 5924 5924 5925 5925 5925 5926 5926 5926 5927 5927 5927 5927 5927 5927 5926 5926 5926 5925 5925
5897 5898 5899 5899 5899 5900 5900 5901 5901 5901 5901 5901 5901 5902 5902 5902 5901 5901 5902 5903 5903 5904 5905 5905 5905 5905 5906 5906 5906 5906 5906 5907 5907 5908 5908 5909 5909 5910 5911 5911 5913 5913 5914 5915 5915 5916 5916 5917 5917 5918 5918 5918 5918 5919 5919 5919 5919 5920 5920 5921 5922 5923 5922 5922 5924 5924 5925 5926 5926 5926 5926 5927 5927 5927 5928 5928 5928 5928 5928 5928 5927 5927 5927 5926 5926
5898 5899 5900 5900 5900 5901 5901 5901 5902 5902 5902 5901 5902 5902 5902 5902 5902 5903 5903 5903 5903 5904 5905 5905 5905 5905 5905 5906 5906 5906 5906 5906 5906 5907 5908 5909 5910 5910 5911 5912 5913 5914 5915 5915 5916 5916 5917 5918 5918 5919 5919 5919 5920 5920 5920 5920 5920 5920 5921 5922 5923 5924 5924 5923 5924 5925 5926 5927 5927 5927 5927 5928 5928 5928 5929 5929 5929 5929 5929 5928 5928 5928 5927 5927 5927
5900 5900 5901 5901 5901 5902 5902 5903 5903 5903 5902 5902 5903 5903 5903 5903 5903 5904 5904 5905 5904 5904 5905 5905 5905 5905 5904 5905 5905 5905 5905 5905 5906 5907 5908 5909 5910 5910 5911 5912 5913 5914 5915 5916 5916 5917 5918 5918 5919 5919 5920 5920 5921 5921 5921 5921 5921 5921 5922 5922 5924 5925 5925 5925 5926 5927 5927 5928 5928 5928 5928 5929 5929 5929 5930 5930 5930 5930 5929 5929 5929 5929 5928 5928 5928
5901 5901 5901 5902 5902 5903 5903 5904 5904 5904 5904 5904 5904 5904 5904 5904 5905 5906 5906 5905 5905 5904 5905 5905 5905 5904 5904 5904 5904 5905 5905 5905 5906 5907 5908 5908 5909 5910 5911 5912 5913 5914 5915 5916 5917 5918 5919 5919 5920 5920 5921 5921 5922 5922 5922 5922 5922 5922 5923 5923 5924 5925 5926 5927 5928 5928 5928 5928 5928 5929 5929 5930 5930 5931 5931 5931 5930 5930 5930 5930 5930 5930 5930 5930 5929
5902 5902 5902 5903 5904 5904 5904 5905 5905 5905 5905 5905 5905 5905 5905 5906 5907 5907 5907 5906 5905 5905 5905 5905 5905 5904 5904 5904 5905 5906 5906 5906 5906 5907 5908 5909 5909 5910 5911 5912 5913 5914 5915 5916 5918 5918 5919 5920 5921 5921 5922 5922 5923 5923 5923 5923 5923 5923 5924 5924 5925 5926 5926 5927 5927 5928 5928 5929 5929 5930 5930 5931 5931 5931 5932 5931 5931 5931 5931 5931 5931 5931 5931 5931 5930
5902 5902 5903 5904 5905 5905 5906 5906 5906 5906 5906 5906 5906 5906 5906 5907 5907 5907 5906 5906 5906 5906 5905 5905 5905 5904 5904 5904 5906 5907 5907 5907 5907 5908 5909 5909 5909 5910 5911 5912 5913 5914 5915 5916 5918 5919 5920 5921 5922 5922 5922 5923 5924 5924 5924 5924 5923 5924 5925 5925 5926 5926 5927 5928 5928 5928 5929 5929 5930 5931 5931 5932 5932 5932 5932 5932 5932 5932 5932 5932 5932 5932 5932 5932 5931
5903 5903 5905 5905 5906 5907 5907 5907 5907 5907 5907 5906 5906 5906 5907 5907 5907 5907 5907 5907 5907 5907 5906 5905 5905 5905 5905 5905 5907 5907 5907 5907 5908 5909 5909 5910 5910 5910 5911 5912 5913 5914 5915 5916 5918 5920 5921 5922 5923 5922 5923 5924 5924 5925 5925 5925 5924 5925 5925 5926 5926 5927 5928 5928 5929 5929 5930 5930 5931 5931 5932 5932 5933 5933 5933 5933 5933 5933 5933 5934 5934 5934 5933 5933 5932
5903 5904 5905 5906 5907 5907 5908 5908 5908 5908 5908 5907 5906 5907 5908 5908 5907 5907 5907 5907 5907 5907 5906 5905 5905 5905 5906 5907 5908 5907 5908 5909 5909 5910 5910 5910 5910 5910 5911 5912 5913 5914 5915 5917 5919 5920 5921 5922 5923 5923 5924 5925 5926 5926 5926 5926 5926 5926 5927 5927 5928 5928 5929 5929 5930 5930 5931 5931 5932 5932 5933 5933 5934 5934 5934 5934 5934 5935 5935 5935 5935 5935 5934 5934 5933
5904 5905 5906 5907 5908 5909 5909 5909 5910 5910 5909 5907 5907 5908 5909 5908 5908 5908 5908 5908 5908 5907 5907 5906 5906 5907 5908 5908 5908 5908 5909 5910 5910 5910 5910 5911 5911 5911 5912 5913 5914 5915 5916 5917 5919 5921 5922 5923 5924 5924 5925 5926 5927 5927 5927 5927 5927 5927 5928 5928 5929 5929 5930 5930 5931 5932 5932 5933 5933 5933 5934 5934 5935 5935 5935 5935 5936 5936 5937 5937 5937 5936 5936 5935 5935
5906 5907 5908 5908 5909 5910 5910 5911 5911 5911 5909 5908 5909 5910 5910 5910 5909 5909 5909 5909 5909 5908 5907 5907 5907 5909 5909 5909 5908 5909 5910 5910 5910 5911 5911 5912 5912 5912 5913 5914 5914 5915 5917 5918 5920 5921 5923 5924 5925 5925 5926 5927 5927 5928 5928 5928 5928 5928 5929 5929 5930 5931 5932 5932 5932 5933 5933 5934 5935 5935 5935 5936 5936 5936 5936 5936 5937 5938 5938 5938 5938 5937 5937 5937 5937
5907 5909 5909 5909 5910 5911 5912 5912 5912 5911 5910 5909 5910 5911 5911 5911 5911 5911 5911 5910 5910 5909 5908 5908 5909 5910 5910 5910 5909 5910 5910 5911 5911 5911 5912 5913 5913 5913 5914 5915 5915 5916 5917 5919 5921 5922 5924 5925 5926 5926 5927 5927 5928 5928 5928 5929 5929 5930 5930 5931 5931 5932 5933 5933 5934 5935 5935 5936 5936 5936 5937 5937 5937 5937 5938 5938 5939 5939 5940 5940 5939 5939 5938 5938 5938
5908 5909 5910 5910 5911 5912 5913 5913 5913 5912 5912 5911 5912 5912 5913 5913 5913 5913 5912 5912 5911 5910 5909 5909 5911 5911 5910 5910 5910 5910 5911 5912 5912 5912 5913 5914 5914 5914 5915 5916 5917 5918 5919 5920 5921 5923 5924 5925 5926 5927 5928 5928 5929 5929 5929 5929 5930 5931 5931 5932 5933 5934 5934 5935 5936 5936 5937 5937 5938 5938 5938 5938 5938 5939 5939 5939 5940 5941 5941 5941 5941 5940 5940 5940 5940
5908 5910 5911 5912 5912 5913 5913 5913 5914 5914 5913 5913 5913 5914 5914 5915 5915 5915 5914 5913 5912 5911 5910 5911 5912 5912 5911 5911 5911 5911 5912 5912 5912 5913 5914 5915 5915 5916 5916 5917 5918 5919 5920 5921 5922 5923 5925 5926 5927 5928 5928 5929 5930 5930 5930 5930 5931 5932 5933 5933 5934 5935 5936 5937 5937 5938 5938 5939 5939 5939 5939 5939 5940 5940 5940 5941 5942 5942 5942 5942 5942 5942 5941 5941 5941
5909 5910 5912 5913 5913 5913 5914 5915 5915 5915 5915 5913 5914 5915 5916 5916 5916 5916 5915 5915 5913 5912 5911 5912 5913 5913 5913 5913 5912 5912 5913 5913 5913 5914 5915 5916 5917 5917 5918 5919 5919 5920 5921 5922 5923 5924 5925 5927 5928 5929 5930 5930 5930 5931 5931 5931 5932 5933 5934 5935 5936 5936 5937 5938 5938 5939 5939 5940 5940 5940 5940 5941 5941 5941 5942 5943 5943 5944 5944 5943 5943 5943 5943 5943 5943
5910 5911 5912 5914 5914 5914 5915 5915 5915 5916 5915 5914 5915 5917 5918 5917 5917 5917 5917 5916 5914 5913 5913 5913 5914 5914 5914 5914 5914 5914 5914 5914 5915 5915 5916 5917 5918 5919 5920 5920 5921 5922 5923 5923 5924 5925 5926 5927 5929 5930 5930 5931 5931 5931 5932 5932 5933 5934 5936 5937 5937 5938 5939 5939 5939 5940 5941 5941 5941 5941 5942 5942 5942 5943 5943 5944 5945 5945 5945 5945 5945 5945 5945 5945 5945
5912 5912 5913 5914 5915 5915 5916 5916 5916 5916 5916 5915 5915 5917 5919 5919 5918 5918 5918 5917 5916 5915 5914 5914 5915 5915 5915 5915 5916 5916 5916 5916 5917 5917 5918 5919 5920 5921 5921 5922 5922 5923 5924 5924 5925 5926 5928 5929 5930 5931 5931 5931 5932 5932 5933 5934 5935 5936 5937 5938 5939 5939 5940 5940 5941 5941 5942 5942 5942 5943 5943 5943 5944 5944 5945 5946 5946 5946 5946 5946 5946 5946 5946 5946 5946
5913 5913 5914 5915 5916 5917 5917 5917 5917 5918 5917 5916 5916 5918 5919 5920 5920 5919 5918 5918 5917 5915 5915 5916 5916 5916 5917 5917 5918 5918 5919 5919 5919 5920 5920 5921 5921 5922 5922 5923 5923 5924 5924 5925 5926 5928 5929 5930 5931 5931 5932 5932 5933 5933 5934 5935 5936 5938 5939 5940 5940 5941 5941 5941 5942 5942 5943 5943 5943 5944 5944 5945 5945 5946 5947 5947 5947 5947 5947 5948 5948 5948 5948 5948 5948
5915 5915 5915 5915 5916 5918 5918 5918 5918 5918 5918 5917 5917 5918 5920 5921 5921 5920 5919 5919 5918 5916 5916 5916 5917 5917 5918 5919 5919 5920 5920 5921 5922 5922 5922 5922 5923 5923 5923 5924 5924 5925 5925 5927 5928 5929 5930 5931 5932 5932 5933 5933 5934 5935 5936 5936 5938 5939 5940 5941 5941 5942 5942 5942 5943 5943 5944 5944 5945 5945 5945 5946 5947 5947 5948 5948 5949 5949 5949 5949 5949 5949 5949 5950 5950
5916 5916 5916 5916 5916 5918 5919 5918 5919 5919 5919 5919 5918 5918 5920 5921 5922 5921 5920 5919 5918 5918 5918 5918 5918 5919 5919 5920 5921 5921 5922 5922 5923 5923 5924 5924 5924 5924 5925 5925 5926 5926 5927 5928 5929 5930 5931 5932 5933 5934 5934 5935 5935 5936 5937 5938 5940 5941 5942 5942 5943 5943 5943 5944 5944 5944 5945 5945 5946 5946 5947 5947 5948 5948 5949 5949 5950 5950 5950 5950 5951 5951 5951 5951 5951
5917 5917 5917 5917 5917 5918 5919 5919 5920 5921 5922 5922 5920 5919 5919 5921 5923 5923 5921 5920 5920 5920 5920 5919 5920 5920 5921 5921 5923 5923 5923 5924 5924 5924 5925 5925 5925 5925 5926 5927 5927 5928 5929 5930 5931 5932 5933 5933 5934 5935 5936 5937 5937 5937 5939 5940 5942 5943 5943 5944 5944 5944 5945 5945 5945 5945 5946 5946 5947 5947 5948 5948 5949 5949 5950 5951 5951 5951 5952 5952 5952 5952 5952 5952 5952
5918 5918 5919 5919 5918 5919 5920 5920 5921 5922 5923 5923 5923 5921 5919 5920 5921 5923 5922 5922 5922 5921 5921 5921 5921 5922 5922 5922 5923 5923 5924 5925 5925 5925 5926 5925 5926 5926 5927 5928 5929 5930 5931 5932 5933 5933 5934 5935 5936 5937 5938 5938 5939 5940 5941 5942 5943 5944 5945 5945 5946 5946 5946 5946 5946 5946 5947 5947 5948 5948 5949 5949 5950 5950 5951 5952 5952 5952 5953 5953 5953 5954 5953 5953 5954
5920 5920 5920 5920 5920 5920 5920 5920 5922 5922 5922 5923 5923 5923 5922 5921 5921 5922 5924 5924 5924 5923 5923 5923 5923 5923 5923 5923 5923 5924 5924 5925 5925 5926 5926 5926 5927 5927 5928 5929 5930 5931 5932 5933 5934 5935 5936 5937 5938 5939 5939 5940 5941 5942 5943 5944 5945 5946 5946 5947 5947 5947 5947 5947 5947 5948 5948 5948 5949 5949 5950 5950 5951 5952 5952 5953 5953 5954 5954 5954 5955 5955 5955 5955 5955
5921 5921 5922 5922 5922 5922 5921 5921 5922 5922 5922 5922 5923 5924 5924 5923 5923 5923 5925 5926 5926 5926 5925 5925 5925 5925 5925 5925 5925 5926 5926 5926 5926 5927 5928 5928 5929 5929 5930 5931 5932 5933 5934 5935 5936 5937 5938 5939 5939 5940 5941 5942 5943 5944 5945 5946 5947 5947 5948 5948 5948 5948 5948 5948 5948 5949 5949 5949 5949 5950 5951 5951 5952 5953 5954 5954 5954 5955 5955 5955 5955 5955 5955 5955 5955
5922 5923 5923 5924 5924 5924 5923 5923 5923 5923 5923 5923 5923 5925 5925 5926 5925 5925 5926 5927 5927 5928 5928 5928 5928 5928 5928 5928 5928 5928 5928 5929 5929 5929 5930 5930 5931 5932 5932 5933 5934 5935 5936 5937 5938 5938 5939 5940 5941 5942 5943 5944 5945 5946 5947 5948 5948 5949 5949 5949 5949 5949 5949 5949 5949 5950 5950 5951 5951 5951 5952 5953 5953 5954 5955 5955 5956 5956 5956 5956 5956 5956 5956 5956 5956
5923 5924 5924 5925 5925 5925 5925 5925 5925 5925 5925 5924 5925 5926 5926 5927 5928 5927 5927 5927 5928 5929 5929 5930 5930 5930 5930 5930 5930 5930 5931 5931 5931 5932 5933 5933 5934 5934 5935 5936 5937 5938 5939 5939 5940 5940 5941 5942 5943 5943 5944 5946 5947 5948 5949 5950 5950 5950 5951 5950 5950 5950 5950 5950 5951 5951 5951 5952 5952 5953 5953 5954 5955 5955 5956 5957 5957 5957 5957 5957 5957 5957 5957 5956 5956
5924 5925 5925 5926 5926 5927 5927 5927 5927 5927 5927 5927 5927 5927 5927 5928 5929 5929 5929 5929 5929 5930 5931 5931 5931 5931 5932 5932 5932 5932 5933 5933 5934 5934 5935 5936 5936 5937 5938 5938 5939 5940 5941 5941 5942 5942 5943 5944 5945 5946 5946 5947 5948 5949 5950 5951 5951 5951 5951 5951 5951 5951 5952 5952 5952 5953 5953 5953 5954 5954 5955 5955 5956 5957 5957 5958 5958 5958 5958 5958 5957 5957 5957 5957 5957
5925 5926 5926 5927 5927 5928 5928 5929 5929 5929 5929 5929 5928 5929 5929 5930 5931 5931 5931 5931 5931 5931 5932 5932 5933 5933 5934 5934 5934 5935 5935 5935 5936 5937 5937 5938 5938 5939 5940 5940 5941 5942 5943 5943 5944 5945 5946 5946 5947 5948 5949 5949 5950 5951 5952 5952 5952 5952 5952 5952 5952 5952 5953 5953 5954 5954 5954 5954 5955 5955 5956 5957 5957 5958 5958 5959 5959 5959 5959 5959 5958 5958 5958 5957 5957
5926 5927 5927 5927 5928 5929 5929 5930 5930 5931 5931 5931 5931 5931 5931 5932 5932 5933 5933 5933 5933 5933 5933 5933 5934 5935 5935 5936 5936 5937 5937 5938 5938 5939 5939 5940 5941 5941 5942 5942 5943 5944 5945 5946 5947 5948 5949 5949 5950 5951 5951 5952 5952 5952 5953 5953 5953 5953 5953 5953 5953 5953 5954 5954 5955 5955 5956 5956 5956 5957 5957 5958 5958 5958 5959 5960 5960 5960 5960 5960 5959 5959 5958 5958 5957
5927 5928 5928 5928 5929 5930 5930 5931 5931 5932 5932 5932 5933 5933 5933 5933 5934 5934 5935 5935 5935 5935 5935 5936 5936 5936 5937 5937 5938 5939 5939 5940 5941 5941 5942 5943 5943 5944 5944 5945 5946 5946 5947 5948 5949 5950 5952 5952 5953 5953 5953 5953 5954 5954 5954 5954 5954 5954 5954 5954 5954 5954 5955 5955 5956 5956 5957 5957 5957 5958 5959 5959 5959 5959 5960 5960 5961 5961 5961 5961 5961 5960 5959 5959 5958
5927 5928 5929 5929 5930 5930 5931 5932 5932 5933 5933 5934 5934 5934 5934 5935 5935 5935 5936 5936 5937 5937 5937 5938 5938 5938 5939 5939 5940 5941 5941 5942 5943 5943 5944 5945 5946 5946 5947 5948 5949 5949 5950 5951 5951 5952 5953 5954 5954 5955 5955 5954 5955 5955 5954 5954 5955 5955 5955 5956 5955 5955 5955 5956 5956 5957 5957 5958 5958 5959 5960 5960 5960 5960 5960 5961 5962 5962 5962 5961 5961 5961 5960 5960 5959
5928 5929 5929 5930 5930 5931 5931 5932 5933 5933 5934 5935 5935 5936 5936 5936 5936 5936 5937 5937 5938 5938 5939 5939 5940 5940 5941 5941 5942 5943 5943 5944 5945 5945 5946 5947 5947 5948 5949 5950 5951 5951 5952 5953 5953 5953 5954 5954 5955 5955 5955 5955 5955 5956 5955 5956 5956 5956 5957 5957 5957 5956 5957 5957 5957 5958 5958 5958 5959 5960 5960 5960 5960 5961 5961 5961 5961 5961 5961 5961 5961 5960 5960 5961 5961
5928 5929 5930 5930 5931 5931 5932 5933 5933 5934 5935 5935 5936 5936 5937 5937 5937 5937 5938 5938 5938 5939 5940 5940 5941 5942 5942 5943 5944 5944 5945 5946 5946 5947 5947 5948 5948 5949 5950 5951 5951 5952 5953 5954 5954 5954 5955 5955 5955 5956 5956 5956 5956 5956 5956 5957 5957 5958 5958 5958 5958 5958 5958 5958 5958 5959 5959 5959 5960 5960 5961 5961 5961 5961 5962 5962 5961 5961 5961 5961 5961 5961 5961 5962 5963
5928 5929 5930 5930 5931 5932 5932 5933 5934 5935 5935 5936 5937 5937 5938 5938 5938 5938 5938 5939 5939 5940 5941 5941 5942 5943 5944 5944 5945 5945 5946 5947 5947 5948 5948 5949 5950 5950 5951 5952 5952 5952 5953 5954 5955 5955 5956 5956 5956 5956 5956 5956 5956 5957 5957 5958 5958 5959 5959 5959 5959 5959 5959 5959 5959 5960 5960 5960 5961 5961 5962 5962 5962 5962 5962 5962 5962 5962 5962 5962 5962 5962 5962 5962 5963
5928 5929 5930 5930 5931 5932 5933 5933 5934 5935 5936 5937 5937 5938 5938 5939 5939 5939 5940 5940 5940 5941 5941 5942 5943 5944 5945 5945 5946 5946 5947 5947 5948 5949 5950 5951 5951 5952 5953 5953 5953 5953 5953 5954 5954 5955 5956 5957 5957 5957 5956 5957 5957 5957 5958 5958 5959 5960 5960 5961 5961 5960 5960 5960 5960 5961 5961 5961 5962 5962 5962 5963 5963 5963 5963 5962 5962 5962 5962 5962 5962 5963 5963 5963 5963
5928 5928 5929 5930 5931 5932 5933 5933 5934 5935 5936 5937 5938 5939 5939 5939 5940 5940 5941 5941 5941 5942 5942 5943 5944 5944 5945 5946 5947 5947 5948 5948 5949 5949 5950 5951 5952 5952 5953 5953 5954 5954 5954 5954 5954 5955 5957 5957 5957 5956 5956 5957 5958 5958 5959 5959 5960 5960 5961 5961 5962 5962 5962 5962 5961 5962 5962 5962 5962 5963 5963 5963 5963 5963 5963 5963 5963 5962 5962 5963 5963 5963 5964 5964 5963
5927 5928 5929 5930 5931 5932 5933 5933 5934 5935 5937 5938 5939 5939 5940 5940 5941 5941 5941 5942 5942 5943 5943 5944 5945 5945 5946 5947 5948 5948 5948 5949 5949 5950 5951 5951 5952 5952 5953 5954 5955 5955 5955 5955 5955 5955 5956 5957 5957 5956 5957 5957 5959 5959 5960 5960 5960 5961 5961 5962 5962 5963 5962 5962 5962 5963 5962 5962 5963 5963 5963 5963 5963 5963 5963 5963 5963 5963 5963 5963 5963 5964 5964 5963 5963
5927 5928 5929 5930 5931 5932 5933 5934 5935 5936 5937 5938 5939 5940 5941 5941 5942 5942 5943 5943 5944 5944 5944 5945 5946 5946 5947 5948 5948 5949 5949 5950 5950 5951 5951 5951 5952 5953 5953 5954 5955 5955 5956 5956 5956 5956 5956 5957 5957 5957 5957 5958 5959 5960 5960 5961 5961 5961 5962 5962 5963 5963 5963 5963 5963 5963 5963 5963 5963 5963 5964 5964 5964 5964 5963 5963 5962 5962 5963 5963 5963 5963 5963 5963 5963
5927 5928 5929 5930 5931 5932 5933 5934 5935 5936 5937 5938 5939 5940 5941 5942 5942 5943 5943 5944 5945 5945 5945 5946 5947 5948 5948 5949 5949 5950 5950 5950 5951 5951 5952 5952 5953 5953 5954 5954 5954 5955 5956 5956 5957 5957 5957 5958 5958 5958 5958 5959 5959 5960 5960 5961 5961 5962 5962 5963 5963 5963 5964 5964 5964 5964 5963 5963 5963 5964 5964 5964 5964 5964 5963 5963 5963 5962 5963 5963 5963 5963 5962 5962 5962
5926 5927 5928 5930 5931 5932 5933 5934 5935 5936 5937 5938 5939 5940 5941 5942 5943 5944 5944 5945 5946 5946 5946 5947 5948 5948 5949 5949 5950 5950 5951 5951 5951 5952 5952 5953 5953 5954 5954 5954 5954 5955 5956 5956 5957 5957 5957 5958 5958 5958 5959 5960 5960 5960 5960 5961 5961 5962 5962 5963 5963 5964 5964 5964 5964 5964 5963 5964 5964 5964 5965 5965 5965 5964 5963 5964 5963 5962 5963 5963 5964 5963 5962 5962 5962
5925 5926 5928 5929 5930 5931 5933 5934 5935 5936 5937 5938 5939 5940 5941 5942 5943 5944 5944 5945 5946 5946 5947 5948 5948 5948 5949 5950 5950 5951 5951 5951 5952 5952 5952 5953 5954 5954 5954 5954 5955 5956 5956 5956 5957 5957 5958 5959 5959 5959 5960 5960 5961 5961 5961 5961 5961 5962 5962 5963 5963 5964 5964 5965 5965 5964 5964 5964 5964 5964 5965 5965 5966 5965 5964 5964 5964 5963 5963 5963 5963 5963 5963 5962 5962
5925 5926 5927 5929 5930 5931 5932 5934 5935 5936 5937 5938 5938 5939 5940 5942 5942 5943 5944 5945 5946 5946 5947 5948 5949 5949 5950 5950 5950 5951 5952 5952 5952 5953 5953 5953 5954 5955 5955 5955 5956 5956 5956 5957 5958 5958 5959 5959 5959 5960 5960 5961 5961 5961 5961 5961 5962 5962 5962 5963 5963 5963 5963 5964 5964 5964 5964 5964 5964 5964 5964 5965 5966 5965 5964 5964 5964 5963 5963 5963 5963 5964 5964 5964 5963
5924 5925 5927 5928 5929 5930 5932 5933 5934 5935 5937 5937 5938 5939 5940 5941 5942 5943 5944 5945 5946 5946 5947 5948 5949 5949 5950 5950 5951 5951 5952 5952 5953 5953 5953 5954 5954 5955 5956 5957 5957 5956 5957 5957 5958 5958 5958 5959 5959 5960 5961 5961 5961 5961 5961 5962 5962 5963 5963 5963 5963 5963 5962 5962 5963 5963 5963 5964 5964 5964 5964 5965 5965 5965 5964 5964 5964 5963 5963 5963 5964 5964 5963 5964 5963